Regional Weather Roundup
Issued by NWS Glasgow, MT

Home | Current Version | Previous Version | Text Only | Print | Product List | Glossary On
Versions: 1 2 3 4 5 6 7 8 9 10 11 12 13 14 15 16 17 18 19 20 21 22 23 24 25 26 27 28 29 30 31 32 33 34 35 36 37 38 39 40 41 42 43 44 45 46 47 48 49 50
000
ASUS45 KGGW 192015
RWRGGW
HOURLY REGIONAL WEATHER ROUNDUP FOR NORTHEAST MONTANA
NATIONAL WEATHER SERVICE GLASGOW MONTANA
100 PM MST MON FEB 19 2018

NOTE: "FAIR" INDICATES FEW OR NO CLOUDS BELOW 12,000 FEET WITH NO
SIGNIFICANT WEATHER AND/OR OBSTRUCTIONS TO VISISBILITY.

NORTHEAST MONTANA


CITY           SKY/WX    TMP DP  RH WIND       PRES   REMARKS
GLASGOW        CLOUDY     0  -6  76 NW6       30.12F
PLENTYWOOD       N/A      7  -3  64 W2          N/A
WOLF POINT     PTSUNNY    4  -4  69 CALM      30.17F
JORDAN           N/A      5  -2  72 NE3       30.07F
SIDNEY         CLOUDY     8  -4  58 N5        30.16F
GLENDIVE       CLOUDY     4  -2  76 N3        30.10F
MALTA            N/A      7  -2  66 W3          N/A
SCOBEY           N/A      0  -9  65 CALM      30.09F HAZE

FORT PECK REPORTS


CITY           SKY/WX    TMP DP  RH WIND       PRES   REMARKS
FORT PECK        N/A      7   0  73 NW3         N/A
THE PINES        N/A      9   0  67 NE3         N/A

SOUTHEAST MONTANA


CITY           SKY/WX    TMP DP  RH WIND       PRES   REMARKS
BILLINGS       PTSUNNY    2  -4  76 N8        29.95F
MILES CITY     LGT SNOW   4  -1  80 NE8       30.07R
BAKER          LGT SNOW   2  -3  80 E8        30.02F
LIVINGSTON     SUNNY     -1  -7  75 E10       29.84F WCI -17

CENTRAL MONTANA


CITY           SKY/WX    TMP DP  RH WIND       PRES   REMARKS
HAVRE          CLOUDY    -2  -7  79 W7        30.11F HAZE
LEWISTOWN      CLOUDY    -3  -8  79 NW8       29.93F
GREAT FALLS    MOSUNNY   -4 -10  75 MISG      29.99F
CUT BANK       PTSUNNY   -2  -7  79 W5        29.97F
HELENA         SUNNY      4 -11  50 NW5       29.93F
BUTTE          SUNNY      0 -10  63 CALM      29.73F
BOZEMAN        CLOUDY     1  -9  62 NW7       29.87F

WESTERN MONTANA


CITY           SKY/WX    TMP DP  RH WIND       PRES   REMARKS
MISSOULA       CLOUDY     9  -5  53 SE14      29.96F WCI  -7
KALISPELL      NOT AVBL

NORTH DAKOTA


CITY           SKY/WX    TMP DP  RH WIND       PRES   REMARKS
WILLISTON      CLOUDY     5  -5  63 CALM      30.16F
DICKINSON      LGT SNOW   4  -6  63 E7        30.06S
MINOT          CLOUDY     8  -4  58 W3        30.19S
BISMARCK       CLOUDY     7  -5  57 NE13      30.17F WCI  -9

SOUTHERN SASKATCHEWAN


CITY           SKY/WX    TMP DP  RH WIND       PRES   REMARKS
REGINA         PTSUNNY    0  -6  78 SW6       30.15F
MOOSE JAW      PTSUNNY    3  -8  60 W10       30.16S WCI -12
ESTEVAN        PTSUNNY    0  -6  78 W5        30.16F
SWIFT CURRENT  SUNNY      0  -4  85 SW16      30.05S WCI -21




USA.gov is the U.S. government's official web portal to all federal, state and local government web resources and services.